www.pogodaiklimat.ru

Погода и климат >> Архив погоды >> Россия >> Хабаровский край >> Мариинское


ПОГОДА в Мариинском

  • Прогноз погоды в Мариинском
  • Монитор погоды в Мариинском

АРХИВ ПОГОДЫ в Мариинском

Время (UTC), дата Ветер
(напр.,м/с)
 
Видим.   Явления Облачность Т
(С)
Тd
(С)
f
(%)
Тe
(С)
Тes
(С)
Комфортность P
(гПа)
Po
(гПа)
Тmin
(С)
Tmax
(С)
R
(мм)
R24
(мм)
S
(см)
15 9.07 ЮВ 2 50 км 10/10 600 м
[Sc]
+13.2 +8.2 72 +13 +13 1015.9 1013.3
18 9.07 В 2 50 км 8/8 600 м
[Sc]
+10.6 +7.0 78 +9 +9 1015.5 1012.8
21 9.07 В 2 50 км 9/9 600 м
[Sc]
+12.2 +8.8 80 +11 +12 1016.0 1013.3 +10.5
00 10.07 Ю 2 50 км 4/0
[Ci fib]
+17.1 +10.0 63 +17 +28 1015.7 1013.1
03 10.07 ЮВ 2 50 км 8/0
[Ci sp]
+21.2 +11.1 52 +23 +37 комфорт 1014.5 1011.9
06 10.07 ЮВ 4 50 км 10/1 600 м
[Sc Ci fib]
+20.7 +11.5 56 +23 +28 комфорт 1013.4 1010.9
09 10.07 ЮВ 4 50 км 4/0
[Ac trans Ci fib]
+17.5 +11.0 66 +17 +18 1013.0 1010.4 +22.2
15 10.07 В 1 50 км 4/1 600 м
[Sc Ac trans Ci sp]
+14.1 +10.9 81 +14 +14 1012.7 1010.1
18 10.07 штиль 0 50 км 8/8 600 м
[Cb cap]
+13.0 +10.5 85 +13 +13 1012.3 1009.7
21 10.07 штиль 0 50 км 10/8 600 м
[Cb cap Ac und]
+13.7 +11.3 85 +13 +13 1012.1 1009.4 +13.0
00 11.07 С 1 50 км 10/10 600 м
[Cb cap]
+16.8 +12.7 77 +18 +18 1011.3 1008.7
06 11.07 Ю 4 50 км {гроза, ливн. осадки} 9/8 600 м
[Cb cap Ac trans]
+19.2 +14.2 73 +21 +21 комфорт 1009.1 1006.5
09 11.07 В 1 50 км 10/10 600 м
[Cb cap]
+18.0 +13.8 76 +19 +19 1008.5 1005.9 +18.0 0.4
12 11.07 штиль 0 20 км слаб. ливневой дождь 10/10 600 м
[Cb cap]
+14.7 +12.8 88 +14 +14 1008.9 1006.3
15 11.07 штиль 0 10 км ливневой дождь 10/10 600 м
[Cb cap]
+13.9 +12.1 89 +13 +13 1008.4 1005.8
21 11.07 СВ 1 50 км {ливн. осадки, метель} 10/10 600 м
[Cb cap]
+14.2 +12.5 90 +14 +14 1008.2 1005.6 +13.2 4
00 12.07 В 2 50 км {ливн. осадки} 10/10 600 м
[Cb cap]
+16.1 +12.9 81 +16 +16 1008.3 1005.7
03 12.07 ЮВ 2 50 км 10/10 600 м
[Cb cap]
+16.4 +12.5 78 +17 +17 1008.3 1005.7
06 12.07 В 1 50 км 10/10 600 м
[Cb cap]
+17.0 +13.0 77 +18 +18 1008.1 1005.5
09 12.07 В 1 50 км 10/10 600 м
[Cb cap]
+17.0 +13.3 79 +18 +18 1008.4 1005.8 +18.0
12 12.07 ЮВ 2 50 км 10/10 600 м
[Cb cap]
+16.5 +12.9 79 +17 +17 1009.4 1006.8
15 12.07 В 1 50 км 10/10 600 м
[Cb cap]
+16.0 +12.7 81 +17 +17 1009.2 1006.6
18 12.07 ЮВ 1 50 км 10/10 600 м
[Cb cap]
+15.6 +12.0 79 +16 +16 1009.2 1006.6
21 12.07 Ю 1 50 км 9/9 600 м
[Cb cap]
+15.8 +12.7 82 +16 +17 1009.7 1007.1 +15.1
00 13.07 Ю 2 50 км 9/8 600 м
[Cb cap Ac trans]
+19.6 +14.1 71 +22 +24 комфорт 1009.8 1007.3
03 13.07 Ю 3 50 км 9/1 600 м
[Sc Ac trans]
+18.8 +13.1 69 +20 +26 1009.6 1007.0
09 13.07 ЮВ 3 50 км 8/4 600 м
[Sc Ac trans]
+19.2 +13.0 67 +21 +21 комфорт 1009.0 1006.4 +20.2
12 13.07 ЮВ 2 50 км 1/1 600 м
[Sc]
+15.9 +12.3 79 +16 +16 1010.3 1007.6
15 13.07 штиль 0 50 км ясно +13.5 +10.8 84 +13 +13 1010.6 1008.0
18 13.07 СВ 1 50 км туман на расстоянии 3/3 600 м
[Sc]
+11.9 +10.4 91 +12 +12 1011.1 1008.5
21 13.07 ЮВ 1 50 км 8/8 600 м
[Sc]
+15.5 +11.9 79 +16 +17 1011.6 1009.0 +11.8
03 14.07 ЮВ 3 50 км 3/1 600 м
[Sc Ac trans]
+22.8 +13.9 57 +26 +37 жарко 1011.4 1008.9
06 14.07 ЮВ 5
{10}
50 км 1/1 600 м
[Sc]
+22.4 +12.6 54 +25 +30 комфорт 1010.9 1008.3
09 14.07 ЮВ 4 50 км 1/1 600 м
[Sc]
+19.9 +12.3 62 +22 +22 комфорт 1011.1 1008.5 +23.1
12 14.07 ЮВ 3 50 км 3/3 600 м
[Sc Ci sp]
+16.9 +12.1 73 +17 +17 1011.7 1009.1
21 14.07 ЮВ 1 50 км 6/3 600 м
[Sc Ci sp]
+18.0 +13.1 73 +19 +21 1012.4 1009.8 +14.3
09 15.07 ЮВ 4 50 км 9/5 600 м
[Sc Ac trans]
+20.7 +11.2 54 +23 +23 комфорт 1011.0 1008.5 +25.0
21 15.07 З 1 50 км 10/8 600 м
[Cb cap Ac cuf]
+17.2 +12.8 75 +18 +18 1012.3 1009.7 +15.2

 

Местоположение метеостанции Мариинское (Хабаровский край, Россия): широта 51.73 долгота 140.10 высота над уровнем моря 21 м.

В архиве по умолчанию представлена погода в Мариинском за последнюю неделю. Архивные данные за месяц целиком и за предыдущие месяцы, начиная с января 2011 года, Вы можете получить, выбрав интересующий диапазон дат из раскрывающегося списка и нажав кнопку "Ввод!".


*Определитесь, кто Вы:
робот инопланетянин человек

Внимание! Время в таблицах - всемирное. Для получения местного времени необходимо прибавить поправку, которая равна 10 ч.

Смотрите также архив погоды в соседних городах и на ближайших метеорологических станциях:

Погода в Богородском (Хабаровский край, Россия) (75 км)
Погода в Циммермановка (Хабаровский край, Россия) (77 км)
Погода в Погибях (Сахалинская область, Россия) (116 км)
Погода в Джаоре (Хабаровский край, Россия) (129 км)
Погода в Удинске (Хабаровский край, Россия) (159 км)
Погода в Николаевск-на-Амуре (Хабаровский край, Россия) (163 км)
Погода в Нижнетамбовском (Хабаровский край, Россия) (166 км)
Погода в Александровске-Сахалинском (Сахалинская область, Россия) (167 км)
Погода в Ныше (Сахалинская область, Россия) (181 км)
Погода в Сегжеме (Хабаровский край, Россия) (194 км)

Пояснения к столбцам:

Ветер - указаны скорость ветра в м/с - средняя за 10 мин, порывы в срок и между сроками (в фигурных скобках) и направление, откуда дует ветер: С - северный, СВ - северо-восточный, В - восточный, ЮВ - юго-восточный, Ю - южный, ЮЗ - юго-западный, З - западный, СЗ - северо-западный.
Видимость - горизонтальная дальность видимости в метрах или километрах. При видимости от 1 до 10 км при отсутствии осадков обычно наблюдается дымка, при ухудшении видимости до 1 км и менее - туман. В сухую погоду видимость может ухудшаться дымом, пылью или мглою.
Явления - указаны атмосферные явления, наблюдавшиеся в срок или в последний час перед сроком; фигурными скобками обозначены явления, наблюдавшиеся между сроками (за 1-3 часа до срока); квадратными скобками обозначены град или гололедные отложения с указанием их диаметра в мм.
Облачность - указаны через наклонную черту общая и нижняя облачность в баллах и высота нижней границы облаков в метрах; квадратными скобками обозначены формы облаков: Ci - перистые, Cs - перисто-слоистые, Cc - перисто-кучевые, Ac - высококучевые, As - высокослоистые, Sc - слоисто-кучевые, Ns - слоисто-дождевые, Cu - кучевые, Cb - кучево-дождевые. Подробнее классификацию облаков см. в Атласе облаков (PDF).
T - Температура воздуха - температура, измеренная на высоте 2 м над землей.
Td - Температура точки росы - температура, при понижении до которой содержащийся в воздухе водяной пар достигнет насыщения.
f - Относительная влажность воздуха - влажноcть воздуха, измеренная на высоте 2 м над землей.
Te - Эффективная температура - температура, которую ощущает одетый по сезону человек в тени. Характеристика душности погоды. При расчете учитывается влияние влажности воздуха и скорости ветра на теплоощущения человека.
Tes - Эффективная температура на солнце - температура, которую ощущает человек, с поправкой на солнечный нагрев. Характеристика знойности погоды. Зависит от высоты солнца над горизонтом, облачности и скорости ветра. Ночью, в пасмурную погоду, а также при ветре 12 м/с и более поправка равна нулю.
P - Атмосферное давление - приведенное к уровню моря атмосферное давление.
Po - Атмосферное давление - измеренное на уровне метеостанции атмосферное давление.
Tmin - Минимальная температура - минимум температуры воздуха на высоте 2 м над землей.
Tmax - Максимальная температура - максимум температуры воздуха на высоте 2 м над землей.
R - Количество осадков - Количество выпавших осадков за период времени, мм. При наведении курсора мыши на число - период времени, за который выпало указанное количество осадков.
R24 - Количество осадков - Количество выпавших осадков за 24 часа, мм.
S - Снежный покров - Высота снежного покрова, см. При наведении курсора мыши на число - состояние снежного покрова и степень покрытия местности в баллах.